User: anonymous
Location: Vancouver
(49.2500°N, 123.1330°W)
Time: 03:13:53
(UTC-07:00)
Language:

BREEZE-M DEB (TANK) - Orbit

View from above orbital plane
View from above orbital plane
View from above satellite
View from above satellite

Ground track
Ground track

The orbit data is extracted from the following two-line orbital elements,

1 27821U 03024B   14103.76948561  .00010727  00000-0  89152-3 0  3757
2 27821 049.5667 221.1903 5036732 238.1643 070.9170 05.60871855214365
Epoch (UTC): 13 April 2014 18:28:03
Eccentricity: 0.5036732
inclination: 49.5667°
perigee height: 263 km
apogee height: 13742 km
right ascension of ascending node: 221.1903°
argument of perigee: 238.1643°
revolutions per day: 5.60871855
mean anomaly at epoch: 70.9170°
orbit number at epoch: 21436

The dashed part of the orbit path shows where the satellite is in the earth's shadow,  

DLR